Weather History for Mena, AR

Change the Weather History Date:

Tuesday, June 18, 2013

  Actual Average (KFSM) Record (KFSM)
Temperature  
Mean Temperature 77 °F -  
Max Temperature 86 °F 85 °F 103 °F (1936)
Min Temperature 66 °F 65 °F 57 °F (1999)
Cooling Degree Days 12    
Growing Degree Days 27 (Base 50)    
Moisture  
Dew Point 67 °F    
Average Humidity 64    
Maximum Humidity 100    
Minimum Humidity 45    
Precipitation  
Precipitation 0.00 in - - ()
Sea Level Pressure  
Sea Level Pressure 29.99 in    
Wind  
Wind Speed 3 mph (East)    
Max Wind Speed 10 mph    
Max Gust Speed -    
Visibility 9 miles    
Events      
Averages and records for this station are not official NWS values.
T = Trace of Precipitation, MM = Missing Value Source: NWS Daily Summary

Daily Weather History Graph

Daily Weather History Graph

Search for Another Location

Airport:

Trip Planner

Search our weather history database for the weather conditions in past years. The results will help you decide how hot, cold, wet, or windy it might be!

Date:

Astronomy

Jun. 18, 2013 Rise Set
Actual Time 6:03 AM CDT 8:32 PM CDT
Civil Twilight 5:34 AM CDT 9:01 PM CDT
Nautical Twilight 4:58 AM CDT 9:38 PM CDT
Astronomical Twilight 4:18 AM CDT 10:18 PM CDT
Moon 3:26 PM CDT (6/18) 2:01 AM CDT (6/18)
Length of Visible Light 15h 27m
Length of Day
14h 28m
Waxing Gibbous, 71% of the Moon is Illuminated
Jun 18
Waxing Gibbous
Jun 23
Full
Jun 29
Last Quarter
Jul 8
New
Jul 15
First Quarter

Hourly Weather History & Observations

Time (CDT) Temp. Heat Index Dew Point Humidity Pressure Visibility Wind Dir Wind Speed Gust Speed Precip Events Conditions
12:15 AM 69.8 °F - - N/A% 29.97 in 10.0 mi West 3.5 mph - N/A   Clear
12:35 AM 69.8 °F - - N/A% 29.97 in 10.0 mi NW 3.5 mph - N/A   Clear
12:55 AM 69.8 °F - - N/A% 29.97 in 10.0 mi Calm Calm - N/A   Clear
1:15 AM 69.8 °F - - N/A% 29.98 in 10.0 mi Calm Calm - N/A   Clear
1:35 AM 69.8 °F - - N/A% 29.98 in 10.0 mi Calm Calm - N/A   Clear
1:55 AM 68.0 °F - - N/A% 29.97 in 10.0 mi Calm Calm - N/A   Clear
2:15 AM 68.0 °F - - N/A% 29.97 in 10.0 mi Calm Calm - N/A   Clear
2:35 AM 68.0 °F - - N/A% 29.96 in 10.0 mi Calm Calm - N/A   Scattered Clouds
2:55 AM 68.0 °F - - N/A% 29.95 in 7.0 mi Calm Calm - N/A   Mostly Cloudy
3:15 AM 68.0 °F - - N/A% 29.95 in 10.0 mi Calm Calm - N/A   Scattered Clouds
3:35 AM 68.0 °F - - N/A% 29.94 in 7.0 mi Calm Calm - N/A   Mostly Cloudy
3:55 AM 68.0 °F - - N/A% 29.93 in 7.0 mi Calm Calm - N/A   Mostly Cloudy
4:15 AM 68.0 °F - - N/A% 29.92 in 7.0 mi Calm Calm - N/A   Scattered Clouds
4:35 AM 68.0 °F - - N/A% 29.92 in 7.0 mi Calm Calm - N/A   Clear
4:55 AM 68.0 °F - - N/A% 29.92 in 7.0 mi Calm Calm - N/A   Clear
5:15 AM 68.0 °F - - N/A% 29.93 in 7.0 mi Calm Calm - N/A   Clear
5:35 AM 68.0 °F - - N/A% 29.93 in 10.0 mi Calm Calm - N/A   Clear
5:55 AM 68.0 °F - - N/A% 29.95 in 5.0 mi Calm Calm - N/A   Scattered Clouds
6:15 AM 68.0 °F - - N/A% 29.96 in 7.0 mi Calm Calm - N/A   Mostly Cloudy
6:35 AM 68.0 °F - - N/A% 29.98 in 7.0 mi Calm Calm - N/A   Overcast
6:55 AM 69.8 °F - - N/A% 29.99 in 10.0 mi Calm Calm - N/A   Mostly Cloudy
7:15 AM 71.6 °F - - N/A% 29.99 in 10.0 mi Calm Calm - N/A   Scattered Clouds
7:35 AM 73.4 °F - - N/A% 30.00 in 10.0 mi NE 4.6 mph - N/A   Clear
7:55 AM 73.4 °F - - N/A% 30.00 in 10.0 mi NE 4.6 mph - N/A   Scattered Clouds
8:15 AM 73.4 °F - - N/A% 30.00 in 10.0 mi NE 3.5 mph - N/A   Mostly Cloudy
8:35 AM 73.4 °F - 73.4 °F 100% 30.01 in 10.0 mi NNE 4.6 mph - N/A   Overcast
8:55 AM 73.4 °F - 73.4 °F 100% 30.01 in 5.0 mi NE 3.5 mph - N/A   Overcast
9:15 AM 75.2 °F - 75.2 °F 100% 30.01 in 7.0 mi ENE 5.8 mph - N/A   Mostly Cloudy
9:35 AM 77.0 °F - 77.0 °F 100% 30.01 in 10.0 mi ESE 4.6 mph - N/A   Scattered Clouds
9:55 AM 77.0 °F - 68.0 °F 74% 30.01 in 10.0 mi ESE 4.6 mph - N/A   Scattered Clouds
10:15 AM 78.8 °F - 68.0 °F 69% 30.02 in 10.0 mi ENE 4.6 mph - N/A   Scattered Clouds
10:35 AM 78.8 °F - 68.0 °F 69% 30.02 in 10.0 mi East 5.8 mph - N/A   Scattered Clouds
10:55 AM 78.8 °F - 68.0 °F 69% 30.02 in 10.0 mi East 5.8 mph - N/A   Scattered Clouds
11:15 AM 78.8 °F - 68.0 °F 69% 30.03 in 10.0 mi Calm Calm - N/A   Mostly Cloudy
11:35 AM 80.6 °F 83.2 °F 68.0 °F 65% 30.03 in 10.0 mi East 6.9 mph - N/A   Mostly Cloudy
11:55 AM 80.6 °F 83.2 °F 68.0 °F 65% 30.03 in 10.0 mi East 6.9 mph - N/A   Scattered Clouds
12:15 PM 82.4 °F 84.6 °F 66.2 °F 58% 30.02 in 10.0 mi ENE 8.1 mph - N/A   Scattered Clouds
12:35 PM 82.4 °F 84.6 °F 66.2 °F 58% 30.02 in 10.0 mi East 9.2 mph - N/A   Scattered Clouds
12:55 PM 82.4 °F 84.6 °F 66.2 °F 58% 30.02 in 10.0 mi NE 6.9 mph - N/A   Scattered Clouds
1:15 PM 82.4 °F 85.4 °F 68.0 °F 62% 30.02 in 10.0 mi ENE 6.9 mph - N/A   Scattered Clouds
1:35 PM 82.4 °F 84.6 °F 66.2 °F 58% 30.02 in 10.0 mi East 4.6 mph - N/A   Scattered Clouds
1:55 PM 84.2 °F 86.6 °F 66.2 °F 55% 30.01 in 10.0 mi East 6.9 mph - N/A   Clear
2:15 PM 84.2 °F 85.6 °F 64.4 °F 51% 30.00 in 10.0 mi East 9.2 mph - N/A   Clear
2:35 PM 86.0 °F 87.3 °F 64.4 °F 48% 29.99 in 10.0 mi East 8.1 mph - N/A   Clear
2:55 PM 84.2 °F 85.6 °F 64.4 °F 51% 30.00 in 10.0 mi East 10.4 mph - N/A   Clear
3:15 PM 84.2 °F 85.0 °F 62.6 °F 48% 30.00 in 10.0 mi East 9.2 mph - N/A   Clear
3:35 PM 86.0 °F 86.6 °F 62.6 °F 45% 30.00 in 10.0 mi East 10.4 mph - N/A   Clear
3:55 PM 84.2 °F 85.0 °F 62.6 °F 48% 30.00 in 10.0 mi East 6.9 mph - N/A   Clear
4:15 PM 86.0 °F 86.6 °F 62.6 °F 45% 29.99 in 10.0 mi East 6.9 mph - N/A   Clear
4:35 PM 84.2 °F 85.0 °F 62.6 °F 48% 29.99 in 10.0 mi East 6.9 mph - N/A   Scattered Clouds
4:55 PM 84.2 °F 85.6 °F 64.4 °F 51% 29.99 in 10.0 mi East 5.8 mph - N/A   Clear
5:15 PM 82.4 °F 83.9 °F 64.4 °F 54% 29.99 in 10.0 mi Calm Calm - N/A   Clear
5:35 PM 86.0 °F 87.3 °F 64.4 °F 48% 29.99 in 10.0 mi East 6.9 mph - N/A   Clear
5:55 PM 86.0 °F 87.3 °F 64.4 °F 48% 29.98 in 10.0 mi ESE 3.5 mph - N/A   Clear
6:15 PM 86.0 °F 87.3 °F 64.4 °F 48% 29.98 in 10.0 mi ESE 3.5 mph - N/A   Clear
6:35 PM 84.2 °F 84.4 °F 60.8 °F 45% 29.97 in 10.0 mi East 6.9 mph - N/A   Clear
6:55 PM 84.2 °F 84.4 °F 60.8 °F 45% 29.97 in 10.0 mi East 6.9 mph - N/A   Clear
7:15 PM 80.6 °F 81.8 °F 62.6 °F 54% 29.97 in 10.0 mi East 3.5 mph - N/A   Clear
7:35 PM 82.4 °F 83.4 °F 62.6 °F 51% 29.98 in 10.0 mi East 3.5 mph - N/A   Clear
7:55 PM 80.6 °F 82.3 °F 64.4 °F 58% 29.98 in 10.0 mi Calm Calm - N/A   Clear
8:15 PM 80.6 °F 82.3 °F 64.4 °F 58% 29.99 in 10.0 mi Calm Calm - N/A   Clear
8:35 PM 78.8 °F - 68.0 °F 69% 30.00 in 10.0 mi Calm Calm - N/A   Clear
8:55 PM 75.2 °F - 68.0 °F 78% 30.01 in 10.0 mi Calm Calm - N/A   Clear
9:15 PM 73.4 °F - 71.6 °F 94% 30.02 in 10.0 mi Calm Calm - N/A   Clear
9:35 PM 71.6 °F - 71.6 °F 100% 30.02 in 10.0 mi Calm Calm - N/A   Clear
9:55 PM 69.8 °F - 69.8 °F 100% 30.02 in 10.0 mi Calm Calm - N/A   Clear
10:15 PM 69.8 °F - - N/A% 30.02 in 10.0 mi Calm Calm - N/A   Clear
10:35 PM 69.8 °F - - N/A% 30.03 in 10.0 mi Calm Calm - N/A   Clear
10:55 PM 69.8 °F - - N/A% 30.03 in 10.0 mi Calm Calm - N/A   Clear
11:15 PM 68.0 °F - - N/A% 30.03 in 10.0 mi Calm Calm - N/A   Clear
11:35 PM 68.0 °F - - N/A% 30.03 in 10.0 mi Calm Calm - N/A   Clear
11:55 PM 66.2 °F - - N/A% 30.03 in 10.0 mi Calm Calm - N/A   Clear